Location: De Greiden
(52.9496°N, 5.9137°E)
Time: 23:49:51
(UTC+00:00)

Cosmos 1939 Rocket - Pass Details

Date: 24 January 2021
Orbit: 531 x 585 km, 97.4° (Epoch: 01 March)

Event Time Altitude Azimuth Distance (km) Brightness Sun altitude
Rises 17:33:25 0° 171° (S) 2,788 6.5 -12.9°
Reaches altitude 10° 17:35:35 10° 174° (S) 1,888 5.6 -13.2°
Maximum altitude 17:39:40 69° 258° (WSW) 618 3.2 -13.8°
Drops below altitude 10° 17:43:43 10° 342° (NNW) 1,876 5.6 -14.4°
Sets 17:45:52 0° 345° (NNW) 2,768 6.4 -14.7°
